Time,TemperatureF,DewpointF,PressureIn,WindDirection,WindDirectionDegrees,WindSpeedMPH,WindSpeedGustMPH,Humidity,HourlyPrecipIn,Conditions,Clouds,dailyrainin,SolarRadiationWatts/m^2,SoftwareType,DateUTC
2013-02-25 00:00:00,17.4,15.0,30.20,NE,41,0.0,0.0,90,0.00,RA,,0.00,0.0,WeatherDisplay:10.37,2013-02-25 06:00:00,
2013-02-25 00:05:00,17.3,14.9,30.20,NE,41,0.0,0.0,90,0.00,RA,,0.00,0.0,WeatherDisplay:10.37,2013-02-25 06:05:00,
2013-02-25 00:10:00,17.2,14.8,30.20,NE,41,0.0,0.0,90,0.00,CLR,,0.00,0.0,WeatherDisplay:10.37,2013-02-25 06:10:00,
2013-02-25 00:15:00,16.9,14.5,30.20,NE,40,0.0,0.0,90,0.00,CLR,,0.00,0.0,WeatherDisplay:10.37,2013-02-25 06:15:00,
2013-02-25 00:20:00,16.4,14.0,30.20,NE,40,0.0,0.0,90,0.00,CLR,,0.00,0.0,WeatherDisplay:10.37,2013-02-25 06:20:00,
2013-02-25 00:25:00,16.0,13.6,30.20,NE,41,0.0,0.0,90,0.00,CLR,,0.00,0.0,WeatherDisplay:10.37,2013-02-25 06:25:00,
2013-02-25 00:30:00,15.9,13.5,30.21,NE,41,0.0,0.0,90,0.00,CLR,,0.00,0.0,WeatherDisplay:10.37,2013-02-25 06:30:00,
2013-02-25 00:35:00,15.9,13.5,30.20,NE,41,0.0,0.0,90,0.00,CLR,,0.00,0.0,WeatherDisplay:10.37,2013-02-25 06:35:00,
2013-02-25 00:40:00,15.9,13.5,30.21,NE,40,0.0,0.0,90,0.00,CLR,,0.00,0.0,WeatherDisplay:10.37,2013-02-25 06:40:00,
2013-02-25 00:45:00,15.8,13.4,30.21,NE,41,0.0,0.0,90,0.00,CLR,,0.00,0.0,WeatherDisplay:10.37,2013-02-25 06:45:00,
2013-02-25 00:50:00,15.7,13.3,30.21,NE,40,0.0,0.0,90,0.00,CLR,,0.00,0.0,WeatherDisplay:10.37,2013-02-25 06:50:00,
2013-02-25 00:55:00,15.7,13.3,30.21,NE,40,0.0,0.0,90,0.00,CLR,,0.00,0.0,WeatherDisplay:10.37,2013-02-25 06:55:00,
2013-02-25 01:00:00,15.7,13.5,30.21,NE,41,0.0,0.0,91,0.00,CLR,,0.00,0.0,WeatherDisplay:10.37,2013-02-25 07:00:00,
2013-02-25 01:05:00,15.8,13.6,30.21,NE,41,0.0,0.0,91,0.00,CLR,,0.00,0.0,WeatherDisplay:10.37,2013-02-25 07:05:00,
2013-02-25 01:10:00,15.6,13.2,30.21,NE,41,0.0,0.0,90,0.00,CLR,,0.00,0.0,WeatherDisplay:10.37,2013-02-25 07:10:00,
2013-02-25 01:15:00,15.5,13.1,30.20,NE,40,0.0,0.0,90,0.00,CLR,,0.00,0.0,WeatherDisplay:10.37,2013-02-25 07:15:00,
2013-02-25 01:20:00,15.5,13.3,30.20,NE,41,0.0,0.0,91,0.00,CLR,,0.00,0.0,WeatherDisplay:10.37,2013-02-25 07:20:00,
2013-02-25 01:25:00,15.5,13.3,30.20,NE,41,0.0,0.0,91,0.00,CLR,,0.00,0.0,WeatherDisplay:10.37,2013-02-25 07:25:00,
2013-02-25 01:30:00,15.6,13.4,30.20,NE,41,0.0,0.0,91,0.00,CLR,,0.00,0.0,WeatherDisplay:10.37,2013-02-25 07:30:00,
2013-02-25 01:35:00,15.7,13.5,30.20,NE,40,0.0,0.0,91,0.00,CLR,,0.00,0.0,WeatherDisplay:10.37,2013-02-25 07:35:00,
2013-02-25 01:40:00,15.6,13.4,30.20,NE,41,0.0,0.0,91,0.00,CLR,,0.00,0.0,WeatherDisplay:10.37,2013-02-25 07:40:00,
2013-02-25 01:45:00,15.6,13.4,30.20,NE,41,0.0,0.0,91,0.00,CLR,,0.00,0.0,WeatherDisplay:10.37,2013-02-25 07:45:00,
2013-02-25 01:50:00,15.6,13.4,30.20,NE,40,0.0,0.0,91,0.00,CLR,,0.00,0.0,WeatherDisplay:10.37,2013-02-25 07:50:00,
2013-02-25 01:55:00,15.5,13.3,30.20,NE,41,0.0,0.0,91,0.00,CLR,,0.00,0.0,WeatherDisplay:10.37,2013-02-25 07:55:00,
2013-02-25 02:00:00,15.4,13.2,30.20,NE,41,0.0,0.0,91,0.00,CLR,,0.00,0.0,WeatherDisplay:10.37,2013-02-25 08:00:00,
2013-02-25 02:05:00,15.4,13.2,30.20,NE,41,0.0,0.0,91,0.00,CLR,,0.00,0.0,WeatherDisplay:10.37,2013-02-25 08:05:00,
2013-02-25 02:10:00,15.3,13.1,30.20,NE,40,0.0,0.0,91,0.00,CLR,,0.00,0.0,WeatherDisplay:10.37,2013-02-25 08:10:00,
2013-02-25 02:15:00,15.2,13.0,30.20,NE,41,0.0,0.0,91,0.00,CLR,,0.00,0.0,WeatherDisplay:10.37,2013-02-25 08:15:00,
2013-02-25 02:20:00,15.1,12.9,30.20,NE,41,0.0,0.0,91,0.00,CLR,,0.00,0.0,WeatherDisplay:10.37,2013-02-25 08:20:00,
2013-02-25 02:25:00,15.0,12.8,30.20,NE,40,0.0,0.0,91,0.00,CLR,,0.00,0.0,WeatherDisplay:10.37,2013-02-25 08:25:00,
2013-02-25 02:30:00,14.9,12.7,30.20,NE,40,0.0,0.0,91,0.00,CLR,,0.00,0.0,WeatherDisplay:10.37,2013-02-25 08:30:00,
2013-02-25 02:35:00,14.9,12.7,30.20,NE,41,0.0,0.0,91,0.00,CLR,,0.00,0.0,WeatherDisplay:10.37,2013-02-25 08:35:00,
2013-02-25 02:40:00,14.9,12.7,30.20,NE,41,0.0,0.0,91,0.00,CLR,,0.00,0.0,WeatherDisplay:10.37,2013-02-25 08:40:00,
2013-02-25 02:45:00,14.8,12.6,30.20,NE,41,0.0,0.0,91,0.00,CLR,,0.00,0.0,WeatherDisplay:10.37,2013-02-25 08:45:00,
2013-02-25 02:50:00,14.7,12.6,30.20,NE,41,0.0,0.0,91,0.00,CLR,,0.00,0.0,WeatherDisplay:10.37,2013-02-25 08:50:00,
2013-02-25 02:55:00,14.6,12.5,30.20,NE,41,0.0,0.0,91,0.00,CLR,,0.00,0.0,WeatherDisplay:10.37,2013-02-25 08:55:00,
2013-02-25 03:00:00,14.5,12.4,30.20,NE,40,0.0,0.0,91,0.00,CLR,,0.00,0.0,WeatherDisplay:10.37,2013-02-25 09:00:00,
2013-02-25 03:05:00,14.3,11.9,30.20,NE,40,0.0,0.0,90,0.00,CLR,,0.00,0.0,WeatherDisplay:10.37,2013-02-25 09:05:00,
2013-02-25 03:10:00,14.1,12.0,30.20,NE,41,0.0,0.0,91,0.00,CLR,,0.00,0.0,WeatherDisplay:10.37,2013-02-25 09:10:00,
2013-02-25 03:15:00,14.0,11.6,30.20,NE,41,0.0,0.0,90,0.00,CLR,,0.00,0.0,WeatherDisplay:10.37,2013-02-25 09:15:00,
2013-02-25 03:20:00,13.9,11.5,30.20,NE,41,0.0,0.0,90,0.00,CLR,,0.00,0.0,WeatherDisplay:10.37,2013-02-25 09:20:00,
2013-02-25 03:25:00,13.8,11.4,30.20,NE,41,0.0,0.0,90,0.00,CLR,,0.00,0.0,WeatherDisplay:10.37,2013-02-25 09:25:00,
2013-02-25 03:30:00,13.6,11.5,30.20,NE,41,0.0,0.0,91,0.00,CLR,,0.00,0.0,WeatherDisplay:10.37,2013-02-25 09:30:00,
2013-02-25 03:35:00,13.7,11.6,30.20,NE,41,0.0,0.0,91,0.00,CLR,,0.00,0.0,WeatherDisplay:10.37,2013-02-25 09:35:00,
2013-02-25 03:40:00,13.9,11.8,30.20,NE,40,0.0,0.0,91,0.00,CLR,,0.00,0.0,WeatherDisplay:10.37,2013-02-25 09:40:00,
2013-02-25 03:45:00,14.0,11.9,30.19,NE,40,0.0,0.0,91,0.00,CLR,,0.00,0.0,WeatherDisplay:10.37,2013-02-25 09:45:00,
2013-02-25 03:50:00,13.8,11.7,30.19,NE,40,0.0,0.0,91,0.00,CLR,,0.00,0.0,WeatherDisplay:10.37,2013-02-25 09:50:00,
2013-02-25 03:55:00,13.7,11.6,30.19,NE,41,0.0,0.0,91,0.00,CLR,,0.00,0.0,WeatherDisplay:10.37,2013-02-25 09:55:00,
2013-02-25 04:00:00,13.7,11.6,30.19,NE,40,0.0,0.0,91,0.00,CLR,,0.00,0.0,WeatherDisplay:10.37,2013-02-25 10:00:00,
2013-02-25 04:05:00,13.7,11.6,30.19,NE,41,0.0,0.0,91,0.00,CLR,,0.00,0.0,WeatherDisplay:10.37,2013-02-25 10:05:00,
2013-02-25 04:10:00,13.7,11.6,30.20,NE,41,0.0,0.0,91,0.00,CLR,,0.00,0.0,WeatherDisplay:10.37,2013-02-25 10:10:00,
2013-02-25 04:15:00,13.8,11.7,30.19,NE,40,0.0,0.0,91,0.00,CLR,,0.00,0.0,WeatherDisplay:10.37,2013-02-25 10:15:00,
2013-02-25 04:20:00,13.8,11.7,30.20,NE,41,0.0,0.0,91,0.00,CLR,,0.00,0.0,WeatherDisplay:10.37,2013-02-25 10:20:00,
2013-02-25 04:25:00,13.7,11.6,30.20,NE,40,0.0,0.0,91,0.00,CLR,,0.00,0.0,WeatherDisplay:10.37,2013-02-25 10:25:00,
2013-02-25 04:30:00,13.8,11.7,30.20,NE,41,0.0,0.0,91,0.00,CLR,,0.00,0.0,WeatherDisplay:10.37,2013-02-25 10:30:00,
2013-02-25 04:35:00,13.9,11.8,30.20,NE,40,0.0,0.0,91,0.00,CLR,,0.00,0.0,WeatherDisplay:10.37,2013-02-25 10:35:00,
2013-02-25 04:40:00,13.9,11.8,30.20,NE,40,0.0,0.0,91,0.00,CLR,,0.00,0.0,WeatherDisplay:10.37,2013-02-25 10:40:00,
2013-02-25 04:45:00,13.8,11.7,30.20,NE,41,0.0,0.0,91,0.00,CLR,,0.00,0.0,WeatherDisplay:10.37,2013-02-25 10:45:00,
2013-02-25 04:50:00,13.6,11.5,30.20,NE,41,0.0,0.0,91,0.00,CLR,,0.00,0.0,WeatherDisplay:10.37,2013-02-25 10:50:00,
2013-02-25 04:55:00,13.4,11.3,30.21,NE,41,0.0,0.0,91,0.00,CLR,,0.00,0.0,WeatherDisplay:10.37,2013-02-25 10:55:00,
2013-02-25 05:00:00,13.2,10.8,30.21,NE,40,0.0,0.0,90,0.00,CLR,,0.00,0.0,WeatherDisplay:10.37,2013-02-25 11:00:00,
2013-02-25 05:05:00,13.1,10.7,30.21,NE,41,0.0,0.0,90,0.00,CLR,,0.00,0.0,WeatherDisplay:10.37,2013-02-25 11:05:00,
2013-02-25 05:10:00,13.0,10.6,30.21,NE,41,0.0,0.0,90,0.00,CLR,,0.00,0.0,WeatherDisplay:10.37,2013-02-25 11:10:00,
2013-02-25 05:15:00,12.8,10.4,30.20,NE,40,0.0,0.0,90,0.00,CLR,,0.00,0.0,WeatherDisplay:10.37,2013-02-25 11:15:00,
2013-02-25 05:20:00,12.7,10.3,30.21,NE,41,0.0,0.0,90,0.00,CLR,,0.00,0.0,WeatherDisplay:10.37,2013-02-25 11:20:00,
2013-02-25 05:25:00,12.6,10.2,30.21,NE,40,0.0,0.0,90,0.00,CLR,,0.00,0.0,WeatherDisplay:10.37,2013-02-25 11:25:00,
2013-02-25 05:30:00,12.6,10.2,30.22,NE,41,0.0,0.0,90,0.00,CLR,,0.00,0.0,WeatherDisplay:10.37,2013-02-25 11:30:00,
2013-02-25 05:35:00,12.4,10.0,30.22,NE,40,0.0,0.0,90,0.00,CLR,,0.00,0.0,WeatherDisplay:10.37,2013-02-25 11:35:00,
2013-02-25 05:40:00,12.3,9.9,30.22,NE,40,0.0,0.0,90,0.00,CLR,,0.00,0.0,WeatherDisplay:10.37,2013-02-25 11:40:00,
2013-02-25 05:45:00,12.2,9.8,30.22,NE,41,0.0,0.0,90,0.00,CLR,,0.00,0.0,WeatherDisplay:10.37,2013-02-25 11:45:00,
2013-02-25 05:50:00,12.2,9.8,30.22,NE,40,0.0,0.0,90,0.00,CLR,,0.00,0.0,WeatherDisplay:10.37,2013-02-25 11:50:00,
2013-02-25 05:55:00,12.4,10.3,30.22,NE,41,0.0,0.0,91,0.00,CLR,,0.00,0.0,WeatherDisplay:10.37,2013-02-25 11:55:00,
2013-02-25 06:00:00,12.5,10.4,30.22,NE,41,0.0,0.0,91,0.00,CLR,,0.00,0.0,WeatherDisplay:10.37,2013-02-25 12:00:00,
2013-02-25 06:05:00,12.5,10.4,30.22,NE,41,0.0,0.0,91,0.00,OVC,,0.00,0.0,WeatherDisplay:10.37,2013-02-25 12:05:00,
2013-02-25 06:10:00,12.6,10.5,30.23,NE,41,0.0,0.0,91,0.00,OVC,,0.00,0.0,WeatherDisplay:10.37,2013-02-25 12:10:00,
2013-02-25 06:15:00,12.7,10.3,30.23,NE,40,0.0,0.0,90,0.00,OVC,,0.00,0.0,WeatherDisplay:10.37,2013-02-25 12:15:00,
2013-02-25 06:20:00,12.7,10.3,30.23,NE,41,0.0,0.0,90,0.00,OVC,,0.00,0.0,WeatherDisplay:10.37,2013-02-25 12:20:00,
2013-02-25 06:25:00,12.6,10.2,30.23,NE,41,0.0,0.0,90,0.00,OVC,,0.00,0.0,WeatherDisplay:10.37,2013-02-25 12:25:00,
2013-02-25 06:30:00,12.5,10.1,30.23,NE,40,0.0,0.0,90,0.00,OVC,,0.00,0.0,WeatherDisplay:10.37,2013-02-25 12:30:00,
2013-02-25 06:35:00,12.4,10.0,30.23,NE,41,0.0,0.0,90,0.00,OVC,,0.00,5.0,WeatherDisplay:10.37,2013-02-25 12:35:00,
2013-02-25 06:40:00,12.4,10.0,30.23,NE,41,0.0,0.0,90,0.00,OVC,,0.00,5.0,WeatherDisplay:10.37,2013-02-25 12:40:00,
2013-02-25 06:47:00,12.4,10.0,30.22,NE,41,0.0,0.0,90,0.00,SCT,,0.00,7.0,WeatherDisplay:10.37,2013-02-25 12:47:00,
2013-02-25 06:53:00,12.1,9.7,30.22,NE,41,0.0,0.0,90,0.00,BKN,,0.00,9.0,WeatherDisplay:10.37,2013-02-25 12:53:00,
2013-02-25 06:58:00,11.9,9.5,30.22,NE,41,0.0,0.0,90,0.00,BKN,,0.00,12.0,WeatherDisplay:10.37,2013-02-25 12:58:00,
2013-02-25 07:03:00,12.0,9.6,30.22,NE,40,0.0,0.0,90,0.00,BKN,,0.00,12.0,WeatherDisplay:10.37,2013-02-25 13:03:00,
2013-02-25 07:09:00,12.2,9.8,30.22,NE,41,0.0,0.0,90,0.00,BKN,,0.00,14.0,WeatherDisplay:10.37,2013-02-25 13:09:00,
2013-02-25 07:14:00,12.4,10.3,30.21,NE,41,0.0,0.0,91,0.00,BKN,,0.00,19.0,WeatherDisplay:10.37,2013-02-25 13:14:00,
2013-02-25 07:19:00,12.8,10.7,30.22,NE,41,0.0,0.0,91,0.00,BKN,,0.00,26.0,WeatherDisplay:10.37,2013-02-25 13:19:00,
2013-02-25 07:24:00,13.1,11.0,30.22,NE,40,0.0,0.0,91,0.00,BKN,,0.00,33.0,WeatherDisplay:10.37,2013-02-25 13:24:00,
2013-02-25 07:29:00,13.4,11.3,30.22,NE,41,0.0,0.0,91,0.00,BKN,,0.00,39.0,WeatherDisplay:10.37,2013-02-25 13:29:00,
2013-02-25 07:34:00,13.9,11.8,30.22,NE,41,0.0,0.0,91,0.00,BKN,,0.00,42.0,WeatherDisplay:10.37,2013-02-25 13:34:00,
2013-02-25 07:39:00,14.2,12.1,30.22,NE,40,0.0,0.0,91,0.00,BKN,,0.00,63.0,WeatherDisplay:10.37,2013-02-25 13:39:00,
2013-02-25 07:44:00,14.6,12.5,30.22,NE,40,0.0,0.0,91,0.00,BKN,,0.00,63.0,WeatherDisplay:10.37,2013-02-25 13:44:00,
2013-02-25 07:49:00,15.2,13.0,30.22,NE,41,0.0,0.0,91,0.00,BKN,,0.00,65.0,WeatherDisplay:10.37,2013-02-25 13:49:00,
2013-02-25 07:54:00,15.6,13.4,30.22,NE,41,0.0,0.0,91,0.00,BKN,,0.00,70.0,WeatherDisplay:10.37,2013-02-25 13:54:00,
2013-02-25 07:59:00,15.9,13.7,30.22,NE,40,0.0,0.0,91,0.00,BKN,,0.00,77.0,WeatherDisplay:10.37,2013-02-25 13:59:00,
2013-02-25 08:04:00,16.2,14.0,30.22,NE,41,0.0,0.0,91,0.00,BKN,,0.00,84.0,WeatherDisplay:10.37,2013-02-25 14:04:00,
2013-02-25 08:09:00,16.7,14.5,30.23,NE,41,0.0,0.0,91,0.00,BKN,,0.00,83.0,WeatherDisplay:10.37,2013-02-25 14:09:00,
2013-02-25 08:16:00,17.6,15.7,30.23,NE,41,0.0,0.0,92,0.00,BKN,,0.00,93.0,WeatherDisplay:10.37,2013-02-25 14:16:00,
2013-02-25 08:21:00,18.5,16.6,30.23,NE,41,0.0,0.0,92,0.00,BKN,,0.00,102.0,WeatherDisplay:10.37,2013-02-25 14:21:00,
2013-02-25 08:26:00,19.0,17.1,30.23,NE,40,0.0,0.0,92,0.00,BKN,,0.00,113.0,WeatherDisplay:10.37,2013-02-25 14:26:00,
2013-02-25 08:31:00,19.3,17.4,30.23,NE,40,0.0,0.0,92,0.00,BKN,,0.00,72.0,WeatherDisplay:10.37,2013-02-25 14:31:00,
2013-02-25 08:36:00,19.6,17.7,30.23,NE,41,0.0,0.0,92,0.00,BKN,,0.00,104.0,WeatherDisplay:10.37,2013-02-25 14:36:00,
2013-02-25 08:41:00,19.8,17.6,30.23,NE,41,0.0,0.0,91,0.00,BKN,,0.00,83.0,WeatherDisplay:10.37,2013-02-25 14:41:00,
2013-02-25 08:46:00,20.3,18.3,30.23,NE,40,0.0,0.0,92,0.00,BKN,,0.00,77.0,WeatherDisplay:10.37,2013-02-25 14:46:00,
2013-02-25 08:51:00,21.0,19.0,30.23,NE,40,0.0,0.0,92,0.00,BKN,,0.00,86.0,WeatherDisplay:10.37,2013-02-25 14:51:00,
2013-02-25 08:56:00,22.0,20.0,30.23,NE,41,0.0,0.0,92,0.00,BKN,,0.00,86.0,WeatherDisplay:10.37,2013-02-25 14:56:00,
2013-02-25 09:01:00,23.1,21.4,30.23,NE,40,0.0,0.0,93,0.00,BKN,,0.00,141.0,WeatherDisplay:10.37,2013-02-25 15:01:00,
2013-02-25 09:06:00,24.1,22.4,30.22,NE,41,0.0,0.0,93,0.00,BKN,,0.00,155.0,WeatherDisplay:10.37,2013-02-25 15:06:00,
2013-02-25 09:11:00,25.1,23.4,30.22,NE,41,0.0,0.0,93,0.00,BKN,,0.00,98.0,WeatherDisplay:10.37,2013-02-25 15:11:00,
2013-02-25 09:16:00,25.7,24.0,30.22,NE,40,0.0,0.0,93,0.00,BKN,,0.00,151.0,WeatherDisplay:10.37,2013-02-25 15:16:00,
2013-02-25 09:21:00,26.0,24.0,30.22,NE,40,0.0,0.0,92,0.00,BKN,,0.00,197.0,WeatherDisplay:10.37,2013-02-25 15:21:00,
2013-02-25 09:26:00,26.4,24.4,30.22,NE,40,0.0,0.0,92,0.00,BKN,,0.00,155.0,WeatherDisplay:10.37,2013-02-25 15:26:00,
2013-02-25 09:31:00,27.1,25.1,30.22,NE,41,0.0,0.0,92,0.00,BKN,,0.00,155.0,WeatherDisplay:10.37,2013-02-25 15:31:00,
2013-02-25 09:36:00,28.1,25.8,30.21,NE,41,0.0,0.0,91,0.00,BKN,,0.00,109.0,WeatherDisplay:10.37,2013-02-25 15:36:00,
2013-02-25 09:41:00,29.0,26.4,30.22,NE,40,1.1,1.1,90,0.00,BKN,,0.00,264.0,WeatherDisplay:10.37,2013-02-25 15:41:00,
2013-02-25 09:46:00,29.9,26.8,30.21,NE,40,1.1,1.1,88,0.00,BKN,,0.00,125.0,WeatherDisplay:10.37,2013-02-25 15:46:00,
2013-02-25 09:51:00,30.8,26.8,30.21,NE,41,0.0,0.0,85,0.00,BKN,,0.00,406.0,WeatherDisplay:10.37,2013-02-25 15:51:00,
2013-02-25 09:56:00,31.5,26.9,30.20,NE,41,1.1,1.1,83,0.00,SCT,,0.00,374.0,WeatherDisplay:10.37,2013-02-25 15:56:00,
2013-02-25 10:01:00,32.1,26.3,30.20,NE,40,2.3,2.3,79,0.00,SCT,,0.00,241.0,WeatherDisplay:10.37,2013-02-25 16:01:00,
2013-02-25 10:06:00,32.6,26.5,30.20,NE,41,1.1,1.1,78,0.00,SCT,,0.00,294.0,WeatherDisplay:10.37,2013-02-25 16:06:00,
2013-02-25 10:11:00,33.0,26.6,30.20,NE,41,3.5,3.5,77,0.00,BKN,,0.00,127.0,WeatherDisplay:10.37,2013-02-25 16:11:00,
2013-02-25 10:16:00,33.2,26.1,30.20,NE,42,1.0,1.0,75,0.00,BKN,,0.00,116.0,WeatherDisplay:10.37,2013-02-25 16:16:00,
2013-02-25 10:21:00,33.5,26.1,30.19,NE,42,3.5,3.5,74,0.00,BKN,,0.00,100.0,WeatherDisplay:10.37,2013-02-25 16:21:00,
2013-02-25 10:26:00,33.8,26.1,30.19,NE,42,1.1,1.1,73,0.00,BKN,,0.00,146.0,WeatherDisplay:10.37,2013-02-25 16:26:00,
2013-02-25 10:31:00,34.1,26.0,30.19,NE,41,3.5,3.5,72,0.00,BKN,,0.00,230.0,WeatherDisplay:10.37,2013-02-25 16:31:00,
2013-02-25 10:36:00,34.5,26.7,30.19,NE,36,3.5,3.5,73,0.00,BKN,,0.00,107.0,WeatherDisplay:10.37,2013-02-25 16:36:00,
2013-02-25 10:41:00,34.5,26.4,30.19,NE,36,3.5,3.5,72,0.00,BKN,,0.00,151.0,WeatherDisplay:10.37,2013-02-25 16:41:00,
2013-02-25 10:46:00,34.5,26.1,30.19,NE,36,1.1,1.1,71,0.00,BKN,,0.00,218.0,WeatherDisplay:10.37,2013-02-25 16:46:00,
2013-02-25 10:51:00,34.8,26.4,30.19,NE,35,3.5,3.5,71,0.00,BKN,,0.00,304.0,WeatherDisplay:10.37,2013-02-25 16:51:00,
2013-02-25 10:56:00,35.3,26.8,30.19,NE,35,2.3,2.3,71,0.00,SCT,,0.00,541.0,WeatherDisplay:10.37,2013-02-25 16:56:00,
2013-02-25 11:01:00,35.6,26.8,30.19,NE,35,3.5,3.5,70,0.00,FEW,,0.00,547.0,WeatherDisplay:10.37,2013-02-25 17:01:00,
2013-02-25 11:06:00,35.6,26.1,30.19,NE,35,3.5,3.5,68,0.00,FEW,,0.00,548.0,WeatherDisplay:10.37,2013-02-25 17:06:00,
2013-02-25 11:11:00,36.1,26.2,30.19,NE,35,3.5,3.5,67,0.01,RA,,0.01,619.0,WeatherDisplay:10.37,2013-02-25 17:11:00,
2013-02-25 11:16:00,36.2,26.3,30.19,NE,35,3.5,3.5,67,0.01,RA,,0.01,622.0,WeatherDisplay:10.37,2013-02-25 17:16:00,
2013-02-25 11:21:00,36.5,26.2,30.19,NE,35,3.5,3.5,66,0.01,CLR,,0.01,629.0,WeatherDisplay:10.37,2013-02-25 17:21:00,
2013-02-25 11:26:00,36.5,26.2,30.19,NE,35,2.3,2.3,66,0.01,CLR,,0.01,629.0,WeatherDisplay:10.37,2013-02-25 17:26:00,
2013-02-25 11:31:00,36.6,26.7,30.19,NE,35,1.1,1.1,67,0.01,CLR,,0.01,207.0,WeatherDisplay:10.37,2013-02-25 17:31:00,
2013-02-25 11:36:00,37.1,26.8,30.19,NE,38,2.3,2.3,66,0.01,SCT,,0.01,209.0,WeatherDisplay:10.37,2013-02-25 17:36:00,
2013-02-25 11:41:00,37.3,26.2,30.19,North,7,1.1,0.0,64,0.01,BKN,,0.01,339.0,WeatherDisplay:10.37,2013-02-25 17:41:00,
2013-02-25 11:46:00,36.9,26.6,30.19,North,6,2.3,2.3,66,0.01,SCT,,0.01,369.0,WeatherDisplay:10.37,2013-02-25 17:46:00,
2013-02-25 11:51:00,36.9,26.6,30.19,North,6,2.3,2.3,66,0.01,SCT,,0.01,404.0,WeatherDisplay:10.37,2013-02-25 17:51:00,
2013-02-25 11:56:00,37.0,26.3,30.19,NNE,21,3.5,3.5,65,0.02,RA,,0.02,392.0,WeatherDisplay:10.37,2013-02-25 17:56:00,
2013-02-25 12:01:00,37.2,26.1,30.18,NNE,21,2.3,2.3,64,0.02,RA,,0.02,378.0,WeatherDisplay:10.37,2013-02-25 18:01:00,
2013-02-25 12:06:00,37.8,27.1,30.19,NNE,21,2.3,2.3,65,0.02,SCT,,0.02,489.0,WeatherDisplay:10.37,2013-02-25 18:06:00,
2013-02-25 12:11:00,37.9,26.8,30.19,NNE,21,3.5,3.5,64,0.01,FEW,,0.02,686.0,WeatherDisplay:10.37,2013-02-25 18:11:00,
2013-02-25 12:16:00,38.4,26.9,30.19,NNE,23,0.0,0.0,63,0.01,CLR,,0.02,666.0,WeatherDisplay:10.37,2013-02-25 18:16:00,
2013-02-25 12:21:00,39.3,27.4,30.18,South,182,0.0,0.0,62,0.01,CLR,,0.02,664.0,WeatherDisplay:10.37,2013-02-25 18:21:00,
2013-02-25 12:26:00,39.7,27.3,30.18,SSW,193,3.5,3.5,61,0.01,CLR,,0.02,647.0,WeatherDisplay:10.37,2013-02-25 18:26:00,
2013-02-25 12:31:00,39.9,27.1,30.17,South,178,2.3,2.3,60,0.01,CLR,,0.02,671.0,WeatherDisplay:10.37,2013-02-25 18:31:00,
2013-02-25 12:36:00,39.4,26.2,30.18,South,181,3.5,3.5,59,0.02,RA,,0.03,628.0,WeatherDisplay:10.37,2013-02-25 18:36:00,
2013-02-25 12:41:00,39.6,26.8,30.18,South,181,2.3,2.3,60,0.02,RA,,0.03,645.0,WeatherDisplay:10.37,2013-02-25 18:41:00,
2013-02-25 12:46:00,39.6,26.8,30.17,NNE,15,3.5,3.5,60,0.02,CLR,,0.03,647.0,WeatherDisplay:10.37,2013-02-25 18:46:00,
2013-02-25 12:51:00,39.2,26.9,30.17,NNE,25,1.1,0.0,61,0.02,CLR,,0.03,638.0,WeatherDisplay:10.37,2013-02-25 18:51:00,
2013-02-25 12:56:00,39.6,26.8,30.17,NNE,25,0.0,0.0,60,0.01,CLR,,0.03,624.0,WeatherDisplay:10.37,2013-02-25 18:56:00,
2013-02-25 13:01:00,39.6,26.4,30.17,South,182,3.5,3.5,59,0.02,RA,,0.04,647.0,WeatherDisplay:10.37,2013-02-25 19:01:00,
2013-02-25 13:06:00,39.4,26.7,30.17,South,178,1.1,0.0,60,0.02,RA,,0.04,638.0,WeatherDisplay:10.37,2013-02-25 19:06:00,
2013-02-25 13:11:00,39.6,26.4,30.16,South,176,1.1,1.1,59,0.02,CLR,,0.04,636.0,WeatherDisplay:10.37,2013-02-25 19:11:00,
2013-02-25 13:16:00,39.7,26.5,30.16,NNE,22,3.5,3.5,59,0.02,CLR,,0.04,612.0,WeatherDisplay:10.37,2013-02-25 19:16:00,
2013-02-25 13:21:00,40.1,26.5,30.15,NNE,21,2.3,2.3,58,0.02,CLR,,0.04,621.0,WeatherDisplay:10.37,2013-02-25 19:21:00,
2013-02-25 13:26:00,39.5,26.8,30.15,NNE,21,3.5,3.5,60,0.02,CLR,,0.04,603.0,WeatherDisplay:10.37,2013-02-25 19:26:00,
2013-02-25 13:31:00,39.4,26.7,30.15,NNE,22,2.3,2.3,60,0.02,CLR,,0.04,599.0,WeatherDisplay:10.37,2013-02-25 19:31:00,
2013-02-25 13:36:00,40.0,26.8,30.15,NNE,21,1.1,1.1,59,0.01,CLR,,0.04,596.0,WeatherDisplay:10.37,2013-02-25 19:36:00,
2013-02-25 13:41:00,40.2,27.4,30.15,NNE,21,1.1,1.1,60,0.01,CLR,,0.04,594.0,WeatherDisplay:10.37,2013-02-25 19:41:00,
2013-02-25 13:46:00,40.6,27.0,30.15,NNE,22,1.1,1.1,58,0.02,RA,,0.05,589.0,WeatherDisplay:10.37,2013-02-25 19:46:00,
2013-02-25 13:51:00,41.2,27.5,30.15,NNE,22,0.0,0.0,58,0.02,RA,,0.05,577.0,WeatherDisplay:10.37,2013-02-25 19:51:00,
2013-02-25 13:56:00,41.5,27.4,30.15,NNE,20,3.5,3.5,57,0.02,CLR,,0.05,566.0,WeatherDisplay:10.37,2013-02-25 19:56:00,
2013-02-25 14:01:00,40.5,26.9,30.15,NNE,21,2.3,2.3,58,0.01,CLR,,0.05,561.0,WeatherDisplay:10.37,2013-02-25 20:01:00,
2013-02-25 14:06:00,40.6,26.5,30.15,NNE,21,2.0,2.0,57,0.01,CLR,,0.05,552.0,WeatherDisplay:10.37,2013-02-25 20:06:00,
2013-02-25 14:11:00,40.2,27.0,30.14,NNE,21,1.0,0.0,59,0.01,CLR,,0.05,540.0,WeatherDisplay:10.37,2013-02-25 20:11:00,
2013-02-25 14:16:00,40.3,27.1,30.14,NNE,21,3.5,3.5,59,0.01,CLR,,0.05,533.0,WeatherDisplay:10.37,2013-02-25 20:16:00,
2013-02-25 14:21:00,40.2,26.6,30.14,NNE,21,2.3,2.3,58,0.01,CLR,,0.05,522.0,WeatherDisplay:10.37,2013-02-25 20:21:00,
2013-02-25 14:26:00,40.5,27.3,30.14,NNE,21,1.1,1.1,59,0.02,RA,,0.06,512.0,WeatherDisplay:10.37,2013-02-25 20:26:00,
2013-02-25 14:31:00,40.7,27.5,30.13,NNE,21,1.1,1.1,59,0.02,RA,,0.06,501.0,WeatherDisplay:10.37,2013-02-25 20:31:00,
2013-02-25 14:36:00,40.7,27.5,30.13,NNE,21,2.3,2.3,59,0.02,CLR,,0.06,490.0,WeatherDisplay:10.37,2013-02-25 20:36:00,
2013-02-25 14:41:00,41.0,27.3,30.14,NNE,21,1.1,1.1,58,0.02,CLR,,0.06,468.0,WeatherDisplay:10.37,2013-02-25 20:41:00,
2013-02-25 14:46:00,41.3,27.2,30.14,NNE,21,2.3,2.3,57,0.01,CLR,,0.06,462.0,WeatherDisplay:10.37,2013-02-25 20:46:00,
2013-02-25 14:51:00,41.3,28.0,30.14,NNE,21,0.0,0.0,59,0.01,CLR,,0.06,445.0,WeatherDisplay:10.37,2013-02-25 20:51:00,
2013-02-25 14:56:00,41.1,27.9,30.13,NNE,21,0.0,0.0,59,0.01,CLR,,0.06,415.0,WeatherDisplay:10.37,2013-02-25 20:56:00,
2013-02-25 15:01:00,41.7,27.1,30.13,NNE,21,1.1,0.0,56,0.01,CLR,,0.06,411.0,WeatherDisplay:10.37,2013-02-25 21:01:00,
2013-02-25 15:06:00,41.8,27.7,30.13,NNE,21,1.1,1.1,57,0.01,CLR,,0.06,422.0,WeatherDisplay:10.37,2013-02-25 21:06:00,
2013-02-25 15:11:00,41.4,27.3,30.13,NNE,21,1.1,1.1,57,0.01,CLR,,0.06,403.0,WeatherDisplay:10.37,2013-02-25 21:11:00,
2013-02-25 15:16:00,41.5,27.8,30.13,NNE,21,0.0,0.0,58,0.01,CLR,,0.06,346.0,WeatherDisplay:10.37,2013-02-25 21:16:00,
2013-02-25 15:21:00,41.6,27.5,30.13,NNE,25,0.0,0.0,57,0.01,CLR,,0.06,369.0,WeatherDisplay:10.37,2013-02-25 21:21:00,
2013-02-25 15:26:00,41.4,27.7,30.13,NNE,25,2.3,2.3,58,0.00,CLR,,0.06,345.0,WeatherDisplay:10.37,2013-02-25 21:26:00,
2013-02-25 15:31:00,40.6,27.4,30.13,NNE,25,1.1,0.0,59,0.00,CLR,,0.06,330.0,WeatherDisplay:10.37,2013-02-25 21:31:00,
2013-02-25 15:36:00,40.5,27.7,30.13,NNE,25,1.1,1.1,60,0.00,CLR,,0.06,323.0,WeatherDisplay:10.37,2013-02-25 21:36:00,
2013-02-25 15:41:00,40.3,27.9,30.12,NNE,25,2.3,2.3,61,0.00,CLR,,0.06,306.0,WeatherDisplay:10.37,2013-02-25 21:41:00,
2013-02-25 15:46:00,40.3,27.5,30.13,NNE,25,2.3,2.3,60,0.00,CLR,,0.06,276.0,WeatherDisplay:10.37,2013-02-25 21:46:00,
2013-02-25 15:51:00,40.1,27.7,30.13,NNE,25,3.5,3.5,61,0.00,CLR,,0.06,274.0,WeatherDisplay:10.37,2013-02-25 21:51:00,
2013-02-25 15:56:00,40.0,27.6,30.13,NNE,25,3.5,3.5,61,0.00,CLR,,0.06,257.0,WeatherDisplay:10.37,2013-02-25 21:56:00,
2013-02-25 16:01:00,40.0,28.0,30.13,NNE,25,1.1,1.1,62,0.00,CLR,,0.06,237.0,WeatherDisplay:10.37,2013-02-25 22:01:00,
2013-02-25 16:06:00,39.8,27.8,30.13,NNE,25,1.1,1.1,62,0.00,CLR,,0.06,216.0,WeatherDisplay:10.37,2013-02-25 22:06:00,
2013-02-25 16:11:00,39.5,27.9,30.13,NNE,25,2.3,2.3,63,0.00,CLR,,0.06,176.0,WeatherDisplay:10.37,2013-02-25 22:11:00,
2013-02-25 16:16:00,39.4,27.8,30.13,NNE,25,1.1,1.1,63,0.00,CLR,,0.06,142.0,WeatherDisplay:10.37,2013-02-25 22:16:00,
2013-02-25 16:21:00,39.3,27.7,30.14,NNE,25,0.0,0.0,63,0.00,FEW,,0.06,118.0,WeatherDisplay:10.37,2013-02-25 22:21:00,
2013-02-25 16:26:00,39.3,27.7,30.14,NNE,25,0.0,0.0,63,0.00,SCT,,0.06,107.0,WeatherDisplay:10.37,2013-02-25 22:26:00,
2013-02-25 16:31:00,39.0,27.8,30.13,NNE,25,0.0,0.0,64,0.00,SCT,,0.06,74.0,WeatherDisplay:10.37,2013-02-25 22:31:00,
2013-02-25 16:36:00,38.8,27.3,30.13,NNE,25,2.3,2.3,63,0.00,SCT,,0.06,58.0,WeatherDisplay:10.37,2013-02-25 22:36:00,
2013-02-25 16:41:00,38.7,27.6,30.13,NNE,25,1.1,0.0,64,0.00,BKN,,0.06,54.0,WeatherDisplay:10.37,2013-02-25 22:41:00,
2013-02-25 16:46:00,38.4,27.3,30.13,NNE,25,2.3,2.3,64,0.00,BKN,,0.06,47.0,WeatherDisplay:10.37,2013-02-25 22:46:00,
2013-02-25 16:51:00,38.1,27.4,30.13,NNE,25,2.3,2.3,65,0.00,BKN,,0.06,40.0,WeatherDisplay:10.37,2013-02-25 22:51:00,
2013-02-25 16:56:00,37.9,27.5,30.13,NNE,25,0.0,0.0,66,0.00,BKN,,0.06,35.0,WeatherDisplay:10.37,2013-02-25 22:56:00,
2013-02-25 17:01:00,37.6,27.3,30.13,NNE,25,1.1,0.0,66,0.00,BKN,,0.06,30.0,WeatherDisplay:10.37,2013-02-25 23:01:00,
2013-02-25 17:06:00,37.3,27.3,30.13,NNE,25,1.1,1.1,67,0.00,BKN,,0.06,26.0,WeatherDisplay:10.37,2013-02-25 23:06:00,
2013-02-25 17:11:00,37.0,27.1,30.12,NNE,25,0.0,0.0,67,0.00,BKN,,0.06,23.0,WeatherDisplay:10.37,2013-02-25 23:11:00,
2013-02-25 17:16:00,36.6,26.7,30.12,NNE,25,1.1,1.1,67,0.00,BKN,,0.06,18.0,WeatherDisplay:10.37,2013-02-25 23:16:00,
2013-02-25 17:21:00,36.3,26.7,30.12,NNE,25,1.1,1.1,68,0.00,BKN,,0.06,12.0,WeatherDisplay:10.37,2013-02-25 23:21:00,
2013-02-25 17:26:00,36.1,26.9,30.13,NNE,25,2.3,2.3,69,0.00,BKN,,0.06,9.0,WeatherDisplay:10.37,2013-02-25 23:26:00,
2013-02-25 17:31:00,35.9,26.7,30.13,NNE,25,0.0,0.0,69,0.00,BKN,,0.06,5.0,WeatherDisplay:10.37,2013-02-25 23:31:00,
2013-02-25 17:36:00,35.8,27.0,30.13,NNE,25,0.0,0.0,70,0.00,OVC,,0.06,0.0,WeatherDisplay:10.37,2013-02-25 23:36:00,
2013-02-25 17:41:00,35.6,26.8,30.13,NNE,25,0.0,0.0,70,0.00,OVC,,0.06,0.0,WeatherDisplay:10.37,2013-02-25 23:41:00,
2013-02-25 17:46:00,35.3,26.8,30.13,NNE,25,0.0,0.0,71,0.00,OVC,,0.06,0.0,WeatherDisplay:10.37,2013-02-25 23:46:00,
2013-02-25 17:51:00,35.1,26.6,30.12,NNE,25,0.0,0.0,71,0.00,OVC,,0.06,0.0,WeatherDisplay:10.37,2013-02-25 23:51:00,
2013-02-25 17:56:00,34.8,26.7,30.13,NNE,25,1.1,0.0,72,0.00,OVC,,0.06,0.0,WeatherDisplay:10.37,2013-02-25 23:56:00,
2013-02-25 18:01:00,34.5,26.4,30.12,NNE,25,1.1,0.0,72,0.00,CLR,,0.06,0.0,WeatherDisplay:10.37,2013-02-26 00:01:00,
2013-02-25 18:06:00,34.1,26.3,30.13,NNE,25,0.0,0.0,73,0.00,CLR,,0.06,0.0,WeatherDisplay:10.37,2013-02-26 00:06:00,
2013-02-25 18:11:00,33.9,26.2,30.13,NNE,25,0.0,0.0,73,0.00,CLR,,0.06,0.0,WeatherDisplay:10.37,2013-02-26 00:11:00,
2013-02-25 18:16:00,33.4,26.0,30.13,NNE,25,0.0,0.0,74,0.00,CLR,,0.06,0.0,WeatherDisplay:10.37,2013-02-26 00:16:00,
2013-02-25 18:21:00,33.0,25.6,30.13,NNE,25,2.3,2.3,74,0.00,CLR,,0.06,0.0,WeatherDisplay:10.37,2013-02-26 00:21:00,
2013-02-25 18:26:00,32.9,25.8,30.14,NNE,25,1.1,1.1,75,0.00,CLR,,0.06,0.0,WeatherDisplay:10.37,2013-02-26 00:26:00,
2013-02-25 18:31:00,32.8,25.7,30.13,NNE,25,2.0,2.0,75,0.00,CLR,,0.06,0.0,WeatherDisplay:10.37,2013-02-26 00:31:00,
2013-02-25 18:36:00,32.6,25.9,30.13,NNE,25,2.3,2.3,76,0.00,CLR,,0.06,0.0,WeatherDisplay:10.37,2013-02-26 00:36:00,
2013-02-25 18:41:00,32.6,25.9,30.13,NNE,25,3.0,3.0,76,0.00,CLR,,0.06,0.0,WeatherDisplay:10.37,2013-02-26 00:41:00,
2013-02-25 18:46:00,32.7,25.6,30.13,NNE,25,1.1,1.1,75,0.00,CLR,,0.06,0.0,WeatherDisplay:10.37,2013-02-26 00:46:00,
2013-02-25 18:51:00,32.6,25.6,30.14,NNE,25,0.0,0.0,75,0.00,CLR,,0.06,0.0,WeatherDisplay:10.37,2013-02-26 00:51:00,
2013-02-25 18:56:00,32.5,25.5,30.14,NNE,25,1.1,0.0,75,0.00,CLR,,0.06,0.0,WeatherDisplay:10.37,2013-02-26 00:56:00,
2013-02-25 19:01:00,32.5,25.1,30.14,NNE,25,0.0,0.0,74,0.00,CLR,,0.06,0.0,WeatherDisplay:10.37,2013-02-26 01:01:00,
2013-02-25 19:06:00,32.4,25.0,30.14,NNE,25,2.3,2.3,74,0.00,CLR,,0.06,0.0,WeatherDisplay:10.37,2013-02-26 01:06:00,
2013-02-25 19:11:00,31.8,24.1,30.14,NNE,25,2.3,2.3,73,0.00,CLR,,0.06,0.0,WeatherDisplay:10.37,2013-02-26 01:11:00,
2013-02-25 19:16:00,31.4,24.4,30.14,NNE,25,1.1,1.1,75,0.00,CLR,,0.06,0.0,WeatherDisplay:10.37,2013-02-26 01:16:00,
2013-02-25 19:21:00,31.3,24.3,30.14,NNE,25,0.0,0.0,75,0.00,CLR,,0.06,0.0,WeatherDisplay:10.37,2013-02-26 01:21:00,
2013-02-25 19:26:00,31.1,24.1,30.14,NNE,25,0.0,0.0,75,0.00,CLR,,0.06,0.0,WeatherDisplay:10.37,2013-02-26 01:26:00,
2013-02-25 19:31:00,30.9,24.2,30.13,NNE,25,0.0,0.0,76,0.00,CLR,,0.06,0.0,WeatherDisplay:10.37,2013-02-26 01:31:00,
2013-02-25 19:36:00,30.8,24.1,30.13,NNE,25,0.0,0.0,76,0.00,CLR,,0.06,0.0,WeatherDisplay:10.37,2013-02-26 01:36:00,
2013-02-25 19:41:00,30.8,24.1,30.12,NNE,25,0.0,0.0,76,0.00,CLR,,0.06,0.0,WeatherDisplay:10.37,2013-02-26 01:41:00,
2013-02-25 19:46:00,30.7,24.3,30.12,NNE,25,0.0,0.0,77,0.00,CLR,,0.06,0.0,WeatherDisplay:10.37,2013-02-26 01:46:00,
2013-02-25 19:51:00,30.7,24.3,30.12,NNE,25,0.0,0.0,77,0.00,CLR,,0.06,0.0,WeatherDisplay:10.37,2013-02-26 01:51:00,
2013-02-25 19:56:00,30.6,24.2,30.12,NNE,25,1.1,1.1,77,0.00,CLR,,0.06,0.0,WeatherDisplay:10.37,2013-02-26 01:56:00,
2013-02-25 20:01:00,30.6,24.6,30.11,NNE,25,2.3,2.3,78,0.00,CLR,,0.06,0.0,WeatherDisplay:10.37,2013-02-26 02:01:00,
2013-02-25 20:06:00,30.5,24.8,30.11,NNE,25,2.0,2.0,79,0.00,CLR,,0.06,0.0,WeatherDisplay:10.37,2013-02-26 02:06:00,
2013-02-25 20:11:00,30.5,24.8,30.11,NNE,25,0.0,0.0,79,0.00,CLR,,0.06,0.0,WeatherDisplay:10.37,2013-02-26 02:11:00,
2013-02-25 20:16:00,30.4,24.7,30.10,NNE,25,1.1,0.0,79,0.00,CLR,,0.06,0.0,WeatherDisplay:10.37,2013-02-26 02:16:00,
2013-02-25 20:21:00,30.3,24.9,30.10,NNE,25,1.1,1.1,80,0.00,CLR,,0.06,0.0,WeatherDisplay:10.37,2013-02-26 02:21:00,
2013-02-25 20:26:00,30.3,24.9,30.10,NNE,25,0.0,0.0,80,0.00,CLR,,0.06,0.0,WeatherDisplay:10.37,2013-02-26 02:26:00,
2013-02-25 20:31:00,30.0,24.9,30.10,NNE,25,2.3,2.3,81,0.00,CLR,,0.06,0.0,WeatherDisplay:10.37,2013-02-26 02:31:00,
2013-02-25 20:36:00,29.8,25.0,30.10,NNE,25,2.3,2.3,82,0.00,CLR,,0.06,0.0,WeatherDisplay:10.37,2013-02-26 02:36:00,
2013-02-25 20:41:00,29.4,24.6,30.10,NNE,25,2.3,2.3,82,0.00,CLR,,0.06,0.0,WeatherDisplay:10.37,2013-02-26 02:41:00,
2013-02-25 20:46:00,29.0,24.2,30.09,NNE,25,1.1,1.1,82,0.00,CLR,,0.06,0.0,WeatherDisplay:10.37,2013-02-26 02:46:00,
2013-02-25 20:51:00,28.9,24.4,30.09,NNE,25,3.5,3.5,83,0.00,CLR,,0.06,0.0,WeatherDisplay:10.37,2013-02-26 02:51:00,
2013-02-25 20:56:00,28.9,24.7,30.09,NNE,25,0.0,0.0,84,0.00,CLR,,0.06,0.0,WeatherDisplay:10.37,2013-02-26 02:56:00,
2013-02-25 21:01:00,28.9,24.7,30.10,NNE,25,1.1,0.0,84,0.00,CLR,,0.06,0.0,WeatherDisplay:10.37,2013-02-26 03:01:00,
2013-02-25 21:06:00,29.0,25.1,30.10,NNE,27,2.3,2.3,85,0.00,CLR,,0.06,0.0,WeatherDisplay:10.37,2013-02-26 03:06:00,
2013-02-25 21:11:00,29.0,25.1,30.11,NNE,27,2.3,2.3,85,0.00,CLR,,0.06,0.0,WeatherDisplay:10.37,2013-02-26 03:11:00,
2013-02-25 21:16:00,29.0,25.1,30.11,NNE,27,0.0,0.0,85,0.00,CLR,,0.06,0.0,WeatherDisplay:10.37,2013-02-26 03:16:00,
2013-02-25 21:21:00,29.0,25.1,30.11,NNE,27,0.0,0.0,85,0.00,CLR,,0.06,0.0,WeatherDisplay:10.37,2013-02-26 03:21:00,
2013-02-25 21:26:00,28.9,25.0,30.11,NNE,27,0.0,0.0,85,0.00,CLR,,0.06,0.0,WeatherDisplay:10.37,2013-02-26 03:26:00,
2013-02-25 21:31:00,28.8,24.9,30.11,NNE,27,0.0,0.0,85,0.00,CLR,,0.06,0.0,WeatherDisplay:10.37,2013-02-26 03:31:00,
2013-02-25 21:36:00,28.5,24.6,30.11,NNE,27,0.0,0.0,85,0.00,CLR,,0.06,0.0,WeatherDisplay:10.37,2013-02-26 03:36:00,
2013-02-25 21:41:00,28.3,24.4,30.10,NNE,27,0.0,0.0,85,0.00,CLR,,0.06,0.0,WeatherDisplay:10.37,2013-02-26 03:41:00,
2013-02-25 21:46:00,28.1,24.2,30.11,NNE,27,0.0,0.0,85,0.00,CLR,,0.06,0.0,WeatherDisplay:10.37,2013-02-26 03:46:00,
2013-02-25 21:51:00,27.9,24.0,30.11,NNE,27,0.0,0.0,85,0.00,CLR,,0.06,0.0,WeatherDisplay:10.37,2013-02-26 03:51:00,
2013-02-25 21:56:00,27.8,23.9,30.11,NNE,27,0.0,0.0,85,0.00,CLR,,0.06,0.0,WeatherDisplay:10.37,2013-02-26 03:56:00,
2013-02-25 22:01:00,28.0,24.4,30.12,NNE,27,0.0,0.0,86,0.00,CLR,,0.06,0.0,WeatherDisplay:10.37,2013-02-26 04:01:00,
2013-02-25 22:06:00,27.9,24.3,30.12,NNE,27,0.0,0.0,86,0.00,CLR,,0.06,0.0,WeatherDisplay:10.37,2013-02-26 04:06:00,
2013-02-25 22:11:00,27.9,24.3,30.12,NNE,27,0.0,0.0,86,0.00,CLR,,0.06,0.0,WeatherDisplay:10.37,2013-02-26 04:11:00,
2013-02-25 22:16:00,27.8,24.2,30.12,NNE,27,0.0,0.0,86,0.00,CLR,,0.06,0.0,WeatherDisplay:10.37,2013-02-26 04:16:00,
2013-02-25 22:21:00,27.7,24.1,30.12,NNE,27,0.0,0.0,86,0.00,CLR,,0.06,0.0,WeatherDisplay:10.37,2013-02-26 04:21:00,
2013-02-25 22:26:00,27.6,24.2,30.12,NNE,27,0.0,0.0,87,0.00,CLR,,0.06,0.0,WeatherDisplay:10.37,2013-02-26 04:26:00,
2013-02-25 22:31:00,27.6,24.2,30.12,NNE,27,0.0,0.0,87,0.00,CLR,,0.06,0.0,WeatherDisplay:10.37,2013-02-26 04:31:00,
2013-02-25 22:36:00,27.7,24.3,30.12,NNE,27,0.0,0.0,87,0.00,CLR,,0.06,0.0,WeatherDisplay:10.37,2013-02-26 04:36:00,
2013-02-25 22:41:00,27.8,24.4,30.12,NNE,27,0.0,0.0,87,0.00,CLR,,0.06,0.0,WeatherDisplay:10.37,2013-02-26 04:41:00,
2013-02-25 22:46:00,27.8,24.4,30.12,NNE,27,0.0,0.0,87,0.00,CLR,,0.06,0.0,WeatherDisplay:10.37,2013-02-26 04:46:00,
2013-02-25 22:51:00,27.9,24.8,30.11,NNE,27,0.0,0.0,88,0.00,CLR,,0.06,0.0,WeatherDisplay:10.37,2013-02-26 04:51:00,
2013-02-25 22:56:00,28.0,24.9,30.12,NNE,27,0.0,0.0,88,0.00,CLR,,0.06,0.0,WeatherDisplay:10.37,2013-02-26 04:56:00,
2013-02-25 23:00:00,28.0,24.9,30.12,NNE,27,0.0,0.0,88,0.00,CLR,,0.06,0.0,WeatherDisplay:10.37,2013-02-26 05:00:00,
2013-02-25 23:05:00,28.1,25.0,30.12,NNE,27,0.0,0.0,88,0.00,CLR,,0.06,0.0,WeatherDisplay:10.37,2013-02-26 05:05:00,
2013-02-25 23:10:00,28.2,25.1,30.12,NNE,27,0.0,0.0,88,0.00,CLR,,0.06,0.0,WeatherDisplay:10.37,2013-02-26 05:10:00,
2013-02-25 23:15:00,28.4,25.3,30.11,NNE,27,0.0,0.0,88,0.00,CLR,,0.06,0.0,WeatherDisplay:10.37,2013-02-26 05:15:00,
2013-02-25 23:20:00,28.5,25.4,30.11,NNE,27,0.0,0.0,88,0.00,CLR,,0.06,0.0,WeatherDisplay:10.37,2013-02-26 05:20:00,
2013-02-25 23:25:00,28.7,25.9,30.11,NNE,27,1.1,0.0,89,0.00,CLR,,0.06,0.0,WeatherDisplay:10.37,2013-02-26 05:25:00,
2013-02-25 23:30:00,28.8,26.0,30.10,NNE,27,0.0,0.0,89,0.00,CLR,,0.06,0.0,WeatherDisplay:10.37,2013-02-26 05:30:00,
2013-02-25 23:35:00,28.8,26.0,30.10,NNE,27,0.0,0.0,89,0.00,CLR,,0.06,0.0,WeatherDisplay:10.37,2013-02-26 05:35:00,
2013-02-25 23:40:00,28.7,25.9,30.09,NNE,27,0.0,0.0,89,0.00,CLR,,0.06,0.0,WeatherDisplay:10.37,2013-02-26 05:40:00,
2013-02-25 23:45:00,28.6,25.8,30.09,NNE,27,0.0,0.0,89,0.00,CLR,,0.06,0.0,WeatherDisplay:10.37,2013-02-26 05:45:00,
2013-02-25 23:50:00,28.6,25.8,30.09,NNE,27,0.0,0.0,89,0.00,CLR,,0.06,0.0,WeatherDisplay:10.37,2013-02-26 05:50:00,
2013-02-25 23:55:00,28.6,25.8,30.09,NNE,27,0.0,0.0,89,0.00,CLR,,0.06,0.0,WeatherDisplay:10.37,2013-02-26 05:55:00,